Location: *
(46.1833°N, 22.7667°E)
Time: 08:34:28
(UTC+00:00)

Cosmos 1190 Rocket - Pass Details

Date: 17 September 2019
Orbit: 757 x 780 km, 74.1° (Epoch: 19 October)

Event Time Altitude Azimuth Distance (km) Brightness Sun altitude
Rises 18:15:33 0° 340° (NNW) 3,272 7.9 -17.3°
Reaches altitude 10° 18:17:59 10° 344° (NNW) 2,338 7.0 -17.7°
Maximum altitude 18:23:15 64° 66° (ENE) 856 4.0 -18.6°
Enters shadow 18:25:31 34° 136° (SE) 1,262 4.6 -18.9°
